VIV6767 MMMD-MMUN

Flight info

Callsign VIV6767
Flight time 0h 53m
Altitude 21000
Route USBUS1A USBUS UJ16 XUDUN XUDUN1A
Aircraft A320/M-SDE3FGHIRWY/LB1

Departure

Time 2026-05-08 21:16
Airport Manuel Crescencio Rejón International Airport (MMMD)

Arrival

Time 2026-05-08 22:09
Airport Cancún International Airport (MMUN)
Time Latitude Longitude Altitude Speed Heading
2026-05-08 20:52 20.93436 -89.66199 44 ft 0 kts 151°
2026-05-08 21:12 20.93422 -89.66188 43 ft 4 kts 141°
2026-05-08 21:12 20.93399 -89.66154 43 ft 7 kts 115°
2026-05-08 21:13 20.93386 -89.66096 41 ft 9 kts 96°
2026-05-08 21:13 20.93384 -89.66017 44 ft 12 kts 82°
2026-05-08 21:13 20.93453 -89.65979 44 ft 13 kts
2026-05-08 21:13 20.93549 -89.65978 44 ft 15 kts
2026-05-08 21:14 20.93626 -89.65974 45 ft 0 kts
2026-05-08 21:14 20.93645 -89.65972 45 ft 5 kts
2026-05-08 21:14 20.93682 -89.65973 45 ft 6 kts 359°
2026-05-08 21:14 20.93726 -89.65969 46 ft 6 kts 20°
2026-05-08 21:15 20.93739 -89.65920 46 ft 8 kts 97°
2026-05-08 21:15 20.93734 -89.65893 46 ft 0 kts 104°
2026-05-08 21:15 20.93733 -89.65891 46 ft 0 kts 105°
2026-05-08 21:15 20.93732 -89.65886 43 ft 7 kts 106°
2026-05-08 21:16 20.93656 -89.65605 42 ft 82 kts 105°
2026-05-08 21:16 20.93433 -89.64756 45 ft 153 kts 106°
2026-05-08 21:16 20.93112 -89.63516 473 ft 179 kts 108°
2026-05-08 21:16 20.92805 -89.62201 1325 ft 185 kts 103°
2026-05-08 21:17 20.92496 -89.60874 1676 ft 195 kts 103°
2026-05-08 21:17 20.92124 -89.59363 1748 ft 221 kts 102°
2026-05-08 21:17 20.91790 -89.57751 2347 ft 228 kts 101°
2026-05-08 21:17 20.91475 -89.55997 2660 ft 251 kts 99°
2026-05-08 21:18 20.91137 -89.54096 3062 ft 267 kts 101°
2026-05-08 21:18 20.90752 -89.52182 4149 ft 251 kts 99°
2026-05-08 21:18 20.90786 -89.50301 4913 ft 265 kts 77°
2026-05-08 21:18 20.91592 -89.48481 5501 ft 281 kts 50°
2026-05-08 21:19 20.93201 -89.47297 6179 ft 293 kts 17°
2026-05-08 21:19 20.95208 -89.47197 7031 ft 294 kts 349°
2026-05-08 21:19 20.97268 -89.47448 7587 ft 302 kts
2026-05-08 21:19 20.99264 -89.46737 8052 ft 309 kts 35°
2026-05-08 21:20 21.00683 -89.45130 9163 ft 290 kts 54°
2026-05-08 21:20 21.01682 -89.43285 9802 ft 292 kts 69°
2026-05-08 21:20 21.02335 -89.41211 10352 ft 298 kts 73°
2026-05-08 21:20 21.03054 -89.39042 10492 ft 320 kts 71°
2026-05-08 21:21 21.03880 -89.36738 10616 ft 341 kts 70°
2026-05-08 21:21 21.04768 -89.34323 10916 ft 353 kts 70°
2026-05-08 21:21 21.05676 -89.31855 11416 ft 357 kts 70°
2026-05-08 21:21 21.06583 -89.29364 11953 ft 360 kts 71°
2026-05-08 21:22 21.07473 -89.26878 12489 ft 363 kts 71°
2026-05-08 21:22 21.08372 -89.24338 13016 ft 366 kts 71°
2026-05-08 21:22 21.09275 -89.21768 13538 ft 369 kts 72°
2026-05-08 21:22 21.10182 -89.19176 14001 ft 372 kts 71°
2026-05-08 21:23 21.11096 -89.16559 14473 ft 375 kts 72°
2026-05-08 21:23 21.12012 -89.13937 14943 ft 377 kts 72°
2026-05-08 21:23 21.12929 -89.11322 15400 ft 380 kts 71°
2026-05-08 21:23 21.13869 -89.08643 15860 ft 383 kts 71°
2026-05-08 21:24 21.14809 -89.05960 16321 ft 386 kts 71°
2026-05-08 21:24 21.15754 -89.03255 16774 ft 389 kts 72°
2026-05-08 21:24 21.16698 -89.00553 17210 ft 392 kts 71°
2026-05-08 21:24 21.17655 -88.97811 17669 ft 395 kts 72°
2026-05-08 21:25 21.18623 -88.95041 18133 ft 397 kts 71°
2026-05-08 21:25 21.19595 -88.92257 18520 ft 400 kts 71°
2026-05-08 21:25 21.20574 -88.89454 18897 ft 404 kts 71°
2026-05-08 21:25 21.21568 -88.86610 19275 ft 407 kts 71°
2026-05-08 21:26 21.22550 -88.83795 19658 ft 410 kts 71°
2026-05-08 21:26 21.23551 -88.80915 20039 ft 413 kts 71°
2026-05-08 21:26 21.24562 -88.78006 20426 ft 416 kts 71°
2026-05-08 21:26 21.25552 -88.75080 20761 ft 419 kts 72°
2026-05-08 21:27 21.26567 -88.72118 20835 ft 427 kts 71°
2026-05-08 21:27 21.27615 -88.69110 20843 ft 432 kts 71°
2026-05-08 21:27 21.28660 -88.66124 20843 ft 433 kts 71°
2026-05-08 21:27 21.29724 -88.63090 20842 ft 434 kts 71°
2026-05-08 21:28 21.30787 -88.60054 20842 ft 434 kts 71°
2026-05-08 21:28 21.31844 -88.57020 20841 ft 434 kts 71°
2026-05-08 21:28 21.32889 -88.54016 20849 ft 434 kts 71°
2026-05-08 21:28 21.33939 -88.50980 20847 ft 434 kts 71°
2026-05-08 21:29 21.34983 -88.47945 20849 ft 434 kts 71°
2026-05-08 21:29 21.35887 -88.44846 20844 ft 432 kts 79°
2026-05-08 21:29 21.36275 -88.41660 20846 ft 429 kts 90°
2026-05-08 21:29 21.36134 -88.38474 20811 ft 424 kts 100°
2026-05-08 21:30 21.35563 -88.35418 20626 ft 410 kts 105°
2026-05-08 21:30 21.34951 -88.32518 20386 ft 400 kts 105°
2026-05-08 21:30 21.34341 -88.29621 19977 ft 394 kts 103°
2026-05-08 21:30 21.33733 -88.26760 19553 ft 391 kts 105°
2026-05-08 21:31 21.33133 -88.23930 19106 ft 387 kts 105°
2026-05-08 21:31 21.32542 -88.21125 18693 ft 383 kts 105°
2026-05-08 21:31 21.31965 -88.18385 18273 ft 379 kts 105°
2026-05-08 21:31 21.31386 -88.15636 17803 ft 375 kts 105°
2026-05-08 21:32 21.30811 -88.12914 17313 ft 372 kts 105°
2026-05-08 21:32 21.30241 -88.10223 16846 ft 368 kts 105°
2026-05-08 21:32 21.29677 -88.07553 16376 ft 365 kts 105°
2026-05-08 21:32 21.29113 -88.04915 15908 ft 361 kts 105°
2026-05-08 21:33 21.28537 -88.02295 15458 ft 358 kts 105°
2026-05-08 21:33 21.28137 -88.00496 15146 ft 356 kts 106°
2026-05-08 21:34 21.27859 -87.99122 14946 ft 352 kts 104°
2026-05-08 21:34 21.27318 -87.96554 14441 ft 351 kts 105°
2026-05-08 21:34 21.26758 -87.94033 14008 ft 349 kts 105°
2026-05-08 21:34 21.26182 -87.91504 13568 ft 346 kts 105°
2026-05-08 21:35 21.25611 -87.88999 13078 ft 344 kts 105°
2026-05-08 21:35 21.25054 -87.86536 12583 ft 343 kts 105°
2026-05-08 21:35 21.24498 -87.84048 12107 ft 341 kts 105°
2026-05-08 21:35 21.23958 -87.81598 11926 ft 334 kts 104°
2026-05-08 21:36 21.23609 -87.80013 11922 ft 324 kts 104°
2026-05-08 21:36 21.23102 -87.77718 11932 ft 309 kts 105°
2026-05-08 21:36 21.22456 -87.74795 11938 ft 302 kts 105°
2026-05-08 21:36 21.22133 -87.73311 11940 ft 302 kts 103°
2026-05-08 21:37 21.21971 -87.71098 11942 ft 303 kts 91°
2026-05-08 21:37 21.22004 -87.68828 11941 ft 303 kts 91°
2026-05-08 21:37 21.22035 -87.66562 11940 ft 303 kts 91°
2026-05-08 21:37 21.22065 -87.64296 11943 ft 304 kts 91°
2026-05-08 21:38 21.22092 -87.62042 12013 ft 306 kts 91°
2026-05-08 21:38 21.22119 -87.59750 11638 ft 306 kts 91°
2026-05-08 21:38 21.22146 -87.57464 11289 ft 306 kts 91°
2026-05-08 21:38 21.22172 -87.55182 10963 ft 305 kts 91°
2026-05-08 21:39 21.22199 -87.52937 10646 ft 304 kts 91°
2026-05-08 21:39 21.22228 -87.50671 10301 ft 303 kts 90°
2026-05-08 21:39 21.22255 -87.48426 9849 ft 298 kts 82°
2026-05-08 21:39 21.22315 -87.46244 9167 ft 289 kts 89°
2026-05-08 21:40 21.22358 -87.44065 8451 ft 292 kts 91°
2026-05-08 21:40 21.22372 -87.41895 7876 ft 289 kts 92°
2026-05-08 21:40 21.22382 -87.39782 7453 ft 281 kts 92°
2026-05-08 21:41 21.22411 -87.35851 7083 ft 251 kts 92°
2026-05-08 21:41 21.22409 -87.33993 6696 ft 247 kts 95°
2026-05-08 21:41 21.22324 -87.32160 6271 ft 244 kts 98°
2026-05-08 21:41 21.22204 -87.30384 5985 ft 235 kts 98°
2026-05-08 21:42 21.22078 -87.28630 5959 ft 236 kts 97°
2026-05-08 21:42 21.21950 -87.26868 5682 ft 237 kts 98°
2026-05-08 21:42 21.21826 -87.25108 5157 ft 237 kts 97°
2026-05-08 21:42 21.21708 -87.23350 4698 ft 235 kts 97°
2026-05-08 21:43 21.21597 -87.21629 4238 ft 232 kts 97°
2026-05-08 21:43 21.21488 -87.19906 3755 ft 230 kts 97°
2026-05-08 21:43 21.21378 -87.18205 3291 ft 228 kts 98°
2026-05-08 21:43 21.21233 -87.16519 2797 ft 225 kts 104°
2026-05-08 21:44 21.20688 -87.14995 2395 ft 221 kts 123°
2026-05-08 21:44 21.19833 -87.13629 2152 ft 220 kts 124°
2026-05-08 21:44 21.18970 -87.12237 2006 ft 235 kts 124°
2026-05-08 21:44 21.18054 -87.10764 1979 ft 239 kts 124°
2026-05-08 21:45 21.17162 -87.09331 1973 ft 219 kts 124°
2026-05-08 21:45 21.16353 -87.08031 1985 ft 201 kts 124°
2026-05-08 21:45 21.15611 -87.06842 1992 ft 189 kts 124°
2026-05-08 21:45 21.14887 -87.05682 1988 ft 185 kts 125°
2026-05-08 21:46 21.14187 -87.04559 2009 ft 173 kts 125°
2026-05-08 21:46 21.13550 -87.03536 1992 ft 156 kts 125°
2026-05-08 21:46 21.12978 -87.02620 1994 ft 145 kts 125°
2026-05-08 21:46 21.12421 -87.01728 1995 ft 142 kts 125°
2026-05-08 21:47 21.11874 -87.00851 2003 ft 140 kts 126°
2026-05-08 21:47 21.11336 -86.99990 1998 ft 141 kts 126°
2026-05-08 21:47 21.10790 -86.99116 2003 ft 141 kts 126°
2026-05-08 21:47 21.10243 -86.98239 1930 ft 141 kts 125°
2026-05-08 21:48 21.09703 -86.97376 1799 ft 140 kts 126°
2026-05-08 21:48 21.09164 -86.96512 1657 ft 139 kts 126°
2026-05-08 21:48 21.08629 -86.95655 1483 ft 137 kts 126°
2026-05-08 21:48 21.08097 -86.94804 1299 ft 138 kts 126°
2026-05-08 21:49 21.07564 -86.93951 1109 ft 137 kts 126°
2026-05-08 21:49 21.07028 -86.93094 936 ft 137 kts 126°
2026-05-08 21:49 21.06504 -86.92256 763 ft 138 kts 127°
2026-05-08 21:49 21.05961 -86.91387 578 ft 141 kts 125°
2026-05-08 21:50 21.05418 -86.90520 389 ft 141 kts 125°
2026-05-08 21:50 21.04864 -86.89663 220 ft 139 kts 123°
2026-05-08 21:50 21.04336 -86.88806 91 ft 127 kts 122°
2026-05-08 21:50 21.03873 -86.88112 667 ft 114 kts 128°
2026-05-08 21:51 21.03447 -86.87305 1016 ft 134 kts 128°
2026-05-08 21:51 21.02854 -86.86402 1164 ft 171 kts 125°
2026-05-08 21:51 21.02155 -86.85283 1721 ft 189 kts 125°
2026-05-08 21:51 21.01375 -86.84103 2216 ft 198 kts 133°
2026-05-08 21:52 21.00142 -86.83455 2727 ft 207 kts 173°
2026-05-08 21:52 20.98678 -86.83561 2966 ft 211 kts 187°
2026-05-08 21:52 20.97251 -86.83909 3001 ft 214 kts 190°
2026-05-08 21:52 20.95809 -86.84310 3004 ft 213 kts 191°
2026-05-08 21:53 20.94368 -86.84702 3007 ft 213 kts 190°
2026-05-08 21:53 20.92992 -86.85271 3003 ft 216 kts 212°
2026-05-08 21:53 20.91923 -86.86431 3005 ft 221 kts 225°
2026-05-08 21:53 20.90959 -86.87716 2998 ft 220 kts 227°
2026-05-08 21:54 20.90003 -86.89003 3000 ft 222 kts 227°
2026-05-08 21:54 20.89120 -86.90344 2996 ft 226 kts 242°
2026-05-08 21:54 20.88895 -86.92025 3000 ft 234 kts 277°
2026-05-08 21:54 20.89531 -86.93641 3010 ft 241 kts 302°
2026-05-08 21:55 20.90508 -86.95112 3004 ft 242 kts 307°
2026-05-08 21:55 20.91520 -86.96540 2998 ft 243 kts 307°
2026-05-08 21:55 20.92549 -86.97975 3002 ft 243 kts 307°
2026-05-08 21:56 20.94603 -87.00830 2999 ft 243 kts 307°
2026-05-08 21:56 20.95633 -87.02258 3001 ft 242 kts 307°
2026-05-08 21:56 20.96666 -87.03681 2997 ft 241 kts 307°
2026-05-08 21:56 20.97690 -87.05077 2994 ft 240 kts 307°
2026-05-08 21:57 20.98729 -87.06491 2998 ft 240 kts 307°
2026-05-08 21:57 20.99766 -87.07901 2994 ft 240 kts 307°
2026-05-08 21:57 21.00797 -87.09308 2994 ft 240 kts 307°
2026-05-08 21:57 21.01827 -87.10714 2987 ft 240 kts 307°
2026-05-08 21:58 21.02851 -87.12106 2992 ft 242 kts 307°
2026-05-08 21:58 21.03898 -87.13527 2984 ft 244 kts 307°
2026-05-08 21:58 21.04952 -87.14962 2985 ft 245 kts 307°
2026-05-08 21:58 21.06006 -87.16400 2980 ft 245 kts 307°
2026-05-08 21:59 21.07059 -87.17837 2977 ft 244 kts 307°
2026-05-08 21:59 21.08114 -87.19270 2975 ft 244 kts 307°
2026-05-08 21:59 21.09152 -87.20682 2975 ft 244 kts 307°
2026-05-08 21:59 21.10203 -87.22110 2969 ft 244 kts 307°
2026-05-08 22:00 21.11345 -87.23448 2965 ft 244 kts 324°
2026-05-08 22:00 21.12873 -87.24197 2964 ft 241 kts 352°
2026-05-08 22:00 21.14523 -87.24146 2831 ft 237 kts 20°
2026-05-08 22:00 21.15922 -87.23329 2735 ft 225 kts 49°
2026-05-08 22:01 21.16896 -87.22068 2691 ft 222 kts 58°
2026-05-08 22:01 21.17818 -87.20734 2644 ft 222 kts 57°
2026-05-08 22:01 21.18741 -87.19408 2525 ft 221 kts 57°
2026-05-08 22:01 21.19616 -87.18065 2319 ft 217 kts 68°
2026-05-08 22:02 21.20101 -87.16562 2088 ft 212 kts 84°
2026-05-08 22:02 21.20123 -87.15009 1985 ft 207 kts 102°
2026-05-08 22:02 21.19689 -87.13587 1983 ft 199 kts 120°
2026-05-08 22:02 21.19001 -87.12320 1985 ft 199 kts 124°
2026-05-08 22:03 21.18245 -87.11075 1987 ft 199 kts 125°
2026-05-08 22:03 21.17478 -87.09840 1984 ft 199 kts 125°
2026-05-08 22:03 21.16709 -87.08604 1986 ft 197 kts 125°
2026-05-08 22:03 21.15972 -87.07421 1980 ft 186 kts 125°
2026-05-08 22:04 21.15269 -87.06293 1989 ft 182 kts 125°
2026-05-08 22:04 21.14564 -87.05164 1997 ft 181 kts 125°
2026-05-08 22:04 21.13864 -87.04042 1987 ft 180 kts 125°
2026-05-08 22:04 21.13187 -87.02956 1998 ft 164 kts 126°
2026-05-08 22:05 21.12590 -87.01997 1991 ft 148 kts 126°
2026-05-08 22:05 21.12031 -87.01101 1992 ft 142 kts 126°
2026-05-08 22:05 21.11484 -87.00227 1988 ft 140 kts 126°
2026-05-08 22:05 21.10949 -86.99370 1992 ft 140 kts 126°
2026-05-08 22:06 21.10405 -86.98500 1952 ft 140 kts 126°
2026-05-08 22:06 21.09861 -86.97629 1836 ft 141 kts 126°
2026-05-08 22:06 21.09321 -86.96764 1680 ft 139 kts 126°
2026-05-08 22:06 21.08785 -86.95907 1503 ft 138 kts 126°
2026-05-08 22:07 21.08261 -86.95066 1343 ft 138 kts 126°
2026-05-08 22:07 21.07729 -86.94215 1157 ft 138 kts 126°
2026-05-08 22:07 21.07198 -86.93366 985 ft 138 kts 127°
2026-05-08 22:07 21.06663 -86.92526 837 ft 136 kts 127°
2026-05-08 22:08 21.06127 -86.91670 584 ft 140 kts 127°
2026-05-08 22:08 21.05596 -86.90828 422 ft 129 kts 127°
2026-05-08 22:08 21.05115 -86.90040 244 ft 131 kts 124°
2026-05-08 22:08 21.04636 -86.89265 174 ft 118 kts 126°
2026-05-08 22:09 21.04210 -86.88594 32 ft 92 kts 124°
2026-05-08 22:09 21.03906 -86.88093 28 ft 69 kts 123°
2026-05-08 22:09 21.03672 -86.87722 29 ft 54 kts 125°
2026-05-08 22:09 21.03477 -86.87421 29 ft 47 kts 123°
2026-05-08 22:10 21.03303 -86.87135 28 ft 45 kts 122°
2026-05-08 22:10 21.03131 -86.86866 28 ft 42 kts 124°
2026-05-08 22:10 21.02975 -86.86613 30 ft 40 kts 122°
2026-05-08 22:10 21.02922 -86.86360 28 ft 26 kts 88°
2026-05-08 22:11 21.02899 -86.86234 28 ft 10 kts 45°
2026-05-08 22:11 21.02948 -86.86256 28 ft 9 kts 313°
2026-05-08 22:11 21.03002 -86.86335 28 ft 32 kts 304°
2026-05-08 22:11 21.03264 -86.86727 27 ft 77 kts 315°
2026-05-08 22:12 21.03570 -86.87045 28 ft 40 kts 322°
2026-05-08 22:12 21.03681 -86.87102 28 ft 3 kts